NIMBUS 2 DEB, 28201

Orbit data source: Space-Track

NIMBUS 2 DEB, 28201 is space debris in SSO originally from a launch on Sun, 15 May 1966 UTC launched from the Air Force Western Test Range (AFWTR). Debris objects in space refer to the collection of defunct objects orbiting the Earth. Examples of debris include non-operational satellites, rocket bodies, and fragments generated from explosions, collisions, or faulty payload assembly.

Loading next visibility...
Identifier
28201, 1966-040P
Orbit
SSO
Country
Flag of USUS
Related business
Manufacturer
Unknown
Mission
Spacecraft
Bus & Motor
Unknown
Mass
Unknown
Launch date (UTC)
1966-05-15 (60 years ago)
Launch vehicle
Unknown
Launch site
Air Force Western Test Range (AFWTR)
Object type
Payload
Rocket body
Debris
Shape & HBR
Unknown shape, 0.1 m
Radar Cross Section
Small (<0.1 m²)

Expand to show TLE details & history
Last TLE update: 1 day ago

TLE from 1 day ago
0 NIMBUS 2 DEB
1 28201U 66040P   26120.56921361  .00002616  00000-0  34099-2 0  9995
2 28201 100.2671  42.0451 0060455  85.6132  90.0363 13.62083663644736
Epoch: 2026-04-30T13:39Z
TLE epoch observation values (Epoch: 2026-04-30T13:39:40.055Z)
Latitude
3.50809°
Longitude
159.24723°
Altitude
1,030.824 km
Speed
7.336 km/s
True Right ascension
14h 50m 42s
True Declination
3° 29' 17"
Sunlit
Object was in full shadow at epoch
Visualization orbit readout
Latitude
Unknown
Longitude
Unknown
Altitude
Unknown
Speed
Unknown
Apparent Right ascension
Unknown
Apparent Declination
Unknown
Sunlit
N/A
Visualization observer readout
Local Sidereal Time
03:49:45
Azimuth
Unknown
Elevation
Unknown
Doppler factor
Unknown
Orbital elements
Apogee altitude
1,070.203 km
Perigee altitude
980.686 km
Semi-major axis
7,403.581 km
Eccentricity
0.00605
Inclination
100.2671°
RAAN
42.0451°
Arg. of periapsis
85.6132°
True anomaly
90.72904°
Mean anomaly
90.0363°
Eccentric anomaly
90.38267°
Mean motion
3.40706 °/min
Orbital period
105.66 mins
BSTAR
0.0034099
Loading maneuver chart data...
Computing Atmospheric mass density...
Loading historical data...
Loading historical data...
Loading historical data...
Loading historical data...
Loading historical data...
Loading historical data...
Loading historical data...

Documentation

Showing up to 5 results
|